• In India
  • List of Countries
  • For 7 days
  • Water Temperature
  • Satellite Maps
  • Weather Map
  • Weather Widgets
  • user-avatar
    Login

    Hourly Weather Zawoja

    Today, 16 October, Tuesday

    Time Temperature Precipitation Wind Pressure Humidity
    00:00 +10°C° 0 mm 1 mps 710 mmHg 57%
    01:00 +10°C° 0 mm 1 mps 710 mmHg 56%
    02:00 +10°C° 0 mm 1 mps 709 mmHg 54%
    03:00 +10°C° 0 mm 1 mps 709 mmHg 52%
    04:00 +10°C° 0 mm 1 mps 709 mmHg 50%
    05:00 +10°C° 0 mm 1 mps 710 mmHg 51%
    06:00 +10°C° 0 mm 1 mps 710 mmHg 51%
    07:00 +11°C° 0 mm 1 mps 710 mmHg 51%
    08:00 +13°C° 0 mm 1 mps 710 mmHg 46%
    09:00 +15°C° 0 mm 1 mps 711 mmHg 42%
    10:00 +17°C° 0 mm 2 mps 711 mmHg 38%
    11:00 +18°C° 0 mm 2 mps 711 mmHg 36%
    12:00 +19°C° 0 mm 2 mps 711 mmHg 35%
    13:00 +20°C° 0 mm 2 mps 711 mmHg 33%
    14:00 +20°C° 0 mm 1 mps 711 mmHg 38%
    15:00 +19°C° 0 mm 1 mps 711 mmHg 42%
    16:00 +18°C° 0 mm 1 mps 710 mmHg 47%
    17:00 +15°C° 0 mm 1 mps 710 mmHg 50%
    18:00 +14°C° 0 mm 1 mps 710 mmHg 54%
    19:00 +12°C° 0 mm 1 mps 710 mmHg 57%
    20:00 +12°C° 0 mm 1 mps 710 mmHg 57%
    21:00 +12°C° 0 mm 1 mps 710 mmHg 57%
    22:00 +11°C° 0 mm 1 mps 710 mmHg 57%
    23:00 +11°C° 0 mm 1 mps 710 mmHg 56%

    Tomorrow, 17 October, Wednesday

    Time Temperature Precipitation Wind Pressure Humidity
    00:00 +11°C° 0 mm 1 mps 710 mmHg 56%
    01:00 +11°C° 0 mm 1 mps 710 mmHg 55%
    02:00 +11°C° 0 mm 1 mps 710 mmHg 56%
    03:00 +11°C° 0 mm 1 mps 710 mmHg 57%
    04:00 +11°C° 0 mm 1 mps 710 mmHg 57%
    05:00 +11°C° 0 mm 1 mps 710 mmHg 59%
    06:00 +11°C° 0 mm 1 mps 710 mmHg 60%
    07:00 +11°C° 0 mm 1 mps 710 mmHg 61%
    08:00 +13°C° 0 mm 1 mps 710 mmHg 55%
    09:00 +16°C° 0 mm 1 mps 711 mmHg 49%
    10:00 +19°C° 0 mm 1 mps 711 mmHg 43%
    11:00 +20°C° 0 mm 1 mps 711 mmHg 41%
    12:00 +20°C° 0 mm 1 mps 711 mmHg 40%
    13:00 +21°C° 0 mm 1 mps 710 mmHg 38%
    14:00 +20°C° 0 mm 1 mps 710 mmHg 42%
    15:00 +19°C° 0 mm 1 mps 710 mmHg 47%
    16:00 +18°C° 0 mm 1 mps 709 mmHg 51%
    17:00 +16°C° 0 mm 1 mps 709 mmHg 54%
    18:00 +14°C° 0 mm 1 mps 709 mmHg 57%
    19:00 +13°C° 0 mm 1 mps 709 mmHg 61%
    20:00 +12°C° 0 mm 1 mps 709 mmHg 62%
    21:00 +12°C° 0 mm 1 mps 709 mmHg 63%
    22:00 +12°C° 0 mm 1 mps 709 mmHg 65%
    23:00 +10°C° 0 mm 0 mps 709 mmHg 65%

    Day after tomorrow, 18 October, Thursday

    Time Temperature Precipitation Wind Pressure Humidity
    00:00 +10°C° 0 mm 0 mps 709 mmHg 66%
    01:00 +10°C° 0 mm 0 mps 708 mmHg 67%
    02:00 +10°C° 0 mm 0 mps 708 mmHg 67%
    03:00 +10°C° 0 mm 0 mps 708 mmHg 67%
    04:00 +10°C° 0 mm 0 mps 708 mmHg 66%
    05:00 +10°C° 0 mm 0 mps 708 mmHg 66%
    06:00 +10°C° 0 mm 0 mps 708 mmHg 66%
    07:00 +10°C° 0 mm 0 mps 708 mmHg 66%
    08:00 +12°C° 0 mm 0 mps 708 mmHg 61%
    09:00 +13°C° 0 mm 0 mps 709 mmHg 56%
    10:00 +15°C° 0 mm 0 mps 709 mmHg 51%
    11:00 +16°C° 0 mm 1 mps 709 mmHg 50%
    12:00 +18°C° 0 mm 1 mps 709 mmHg 48%
    13:00 +18°C° 0 mm 1 mps 709 mmHg 47%
    14:00 +16°C° 0 mm 1 mps 708 mmHg 51%
    15:00 +16°C° 0 mm 1 mps 708 mmHg 56%
    16:00 +15°C° 0 mm 1 mps 708 mmHg 60%
    17:00 +14°C° 0 mm 1 mps 708 mmHg 62%
    18:00 +13°C° 0 mm 1 mps 708 mmHg 64%
    19:00 +11°C° 0 mm 0 mps 708 mmHg 67%
    20:00 +11°C° 0 mm 0 mps 708 mmHg 68%
    21:00 +11°C° 0 mm 0 mps 708 mmHg 69%
    22:00 +10°C° 0 mm 0 mps 708 mmHg 70%
    23:00 +10°C° 0 mm 0 mps 708 mmHg 71%

    19 October, Friday

    Time Temperature Precipitation Wind Pressure Humidity
    00:00 +10°C° 0 mm 0 mps 708 mmHg 71%
    01:00 +10°C° 0 mm 0 mps 708 mmHg 72%
    02:00 +9°C° 0 mm 0 mps 708 mmHg 73%
    03:00 +9°C° 0 mm 0 mps 708 mmHg 73%
    04:00 +9°C° 0 mm 0 mps 708 mmHg 73%
    05:00 +9°C° 0 mm 0 mps 708 mmHg 73%
    06:00 +9°C° 0 mm 0 mps 708 mmHg 73%
    07:00 +10°C° 0 mm 0 mps 709 mmHg 73%
    08:00 +12°C° 0 mm 1 mps 709 mmHg 69%
    09:00 +13°C° 0 mm 1 mps 709 mmHg 66%
    10:00 +14°C° 0 mm 1 mps 709 mmHg 62%
    11:00 +14°C° 0 mm 1 mps 709 mmHg 61%
    12:00 +15°C° 0 mm 1 mps 709 mmHg 60%
    13:00 +15°C° 0 mm 1 mps 709 mmHg 59%
    14:00 +15°C° 0 mm 1 mps 709 mmHg 62%
    15:00 +14°C° 0 mm 1 mps 709 mmHg 66%
    16:00 +14°C° 0 mm 1 mps 709 mmHg 69%
    17:00 +13°C° 0 mm 1 mps 709 mmHg 74%
    18:00 +12°C° 0 mm 1 mps 709 mmHg 78%
    19:00 +11°C° 0 mm 1 mps 710 mmHg 82%
    20:00 +11°C° 0.1 mm 1 mps 710 mmHg 84%
    21:00 +11°C° 0.1 mm 1 mps 710 mmHg 85%
    22:00 +11°C° 0.1 mm 1 mps 710 mmHg 86%
    23:00 +11°C° 0 mm 1 mps 710 mmHg 87%

    20 October, Saturday

    Time Temperature Precipitation Wind Pressure Humidity
    00:00 +10°C° 0 mm 1 mps 710 mmHg 88%
    01:00 +10°C° 0 mm 1 mps 710 mmHg 88%
    02:00 +9°C° 0 mm 2 mps 710 mmHg 89%
    03:00 +8°C° 0 mm 2 mps 710 mmHg 90%
    04:00 +8°C° 0 mm 2 mps 710 mmHg 91%
    05:00 +8°C° 0 mm 2 mps 711 mmHg 92%
    06:00 +8°C° 0 mm 2 mps 711 mmHg 92%
    07:00 +8°C° 0 mm 2 mps 711 mmHg 92%
    08:00 +9°C° 0 mm 2 mps 712 mmHg 88%
    09:00 +10°C° 0 mm 2 mps 712 mmHg 84%
    10:00 +12°C° 0 mm 2 mps 712 mmHg 80%
    11:00 +10°C° 0.1 mm 2 mps 712 mmHg 81%
    12:00 +10°C° 0.1 mm 2 mps 712 mmHg 82%
    13:00 +10°C° 0.1 mm 3 mps 712 mmHg 82%
    14:00 +10°C° 0.1 mm 2 mps 712 mmHg 84%
    15:00 +10°C° 0.1 mm 2 mps 712 mmHg 86%
    16:00 +9°C° 0.1 mm 2 mps 713 mmHg 87%
    17:00 +9°C° 0.1 mm 2 mps 713 mmHg 88%
    18:00 +9°C° 0.1 mm 2 mps 713 mmHg 89%
    19:00 +8°C° 0.1 mm 2 mps 713 mmHg 89%
    20:00 +8°C° 0 mm 2 mps 714 mmHg 90%
    21:00 +8°C° 0 mm 2 mps 714 mmHg 90%
    22:00 +7°C° 0 mm 2 mps 714 mmHg 90%
    23:00 +7°C° 0 mm 2 mps 714 mmHg 90%

    21 October, Sunday

    Time Temperature Precipitation Wind Pressure Humidity
    00:00 +6°C° 0 mm 2 mps 714 mmHg 90%
    01:00 +6°C° 0 mm 2 mps 714 mmHg 90%
    02:00 +6°C° 0 mm 1 mps 714 mmHg 91%
    03:00 +6°C° 0 mm 1 mps 714 mmHg 92%
    04:00 +5°C° 0 mm 1 mps 713 mmHg 94%
    05:00 +5°C° 0 mm 1 mps 714 mmHg 93%
    06:00 +5°C° 0 mm 1 mps 714 mmHg 92%
    07:00 +5°C° 0 mm 1 mps 714 mmHg 91%
    08:00 +6°C° 0 mm 1 mps 714 mmHg 85%
    09:00 +6°C° 0 mm 2 mps 714 mmHg 79%
    10:00 +8°C° 0 mm 2 mps 715 mmHg 72%
    11:00 +8°C° 0 mm 2 mps 714 mmHg 69%
    12:00 +9°C° 0 mm 2 mps 714 mmHg 66%
    13:00 +10°C° 0 mm 2 mps 714 mmHg 62%
    14:00 +11°C° 0 mm 1 mps 714 mmHg 65%
    15:00 +10°C° 0 mm 1 mps 713 mmHg 67%
    16:00 +10°C° 0 mm 1 mps 713 mmHg 70%
    17:00 +9°C° 0 mm 1 mps 713 mmHg 75%
    18:00 +7°C° 0 mm 1 mps 713 mmHg 79%
    19:00 +6°C° 0 mm 1 mps 713 mmHg 84%
    20:00 +6°C° 0 mm 1 mps 713 mmHg 84%
    21:00 +6°C° 0 mm 1 mps 713 mmHg 84%
    22:00 +6°C° 0 mm 1 mps 713 mmHg 85%
    23:00 +6°C° 0 mm 1 mps 713 mmHg 85%
    Show more